Snowfall_Accumulation
0.0 0.0 0.0 0.0 0.0 0.0 0.0 0.0 0.0 0.0 0.0 0.0 0.0 0.0 0.0 0.0 0.0 0.0 0.0 0.0 0.5 0.5 0.0 0.0 0.0 0.0 0.0 0.0 0.0 0.0 0.1 0.2 1.7 0.1 0.0 0.0 0.0 0.0 0.0 0.0 0.0 0.0 0.0
0.0 0.0 0.0 0.0 0.0 0.0 0.0 0.0 0.0 0.0 0.0 0.0 0.0 0.0 0.0 0.0 0.0 0.0 0.0 0.7 0.7 0.0 0.0 0.0 0.0 0.4 0.8 0.0 0.1 0.1 0.1 0.1 0.6 0.9 0.0 0.0 0.0 0.0 0.0 0.0 0.0 0.0 0.0
0.0 0.0 0.0 0.0 0.0 0.0 0.0 0.0 0.0 0.0 0.0 0.0 0.0 0.0 0.0 0.0 0.0 0.0 0.0 0.0 0.0 0.0 0.0 0.0 0.0 0.5 0.9 0.9 0.0 0.1 0.3 0.1 0.2 0.7 0.4 0.0 0.0 0.0 0.0 0.0 0.0 0.0 0.0
0.0 0.0 0.0 0.0 0.0 0.0 0.0 0.0 0.0 0.0 0.0 0.0 0.0 0.0 0.0 0.0 0.0 0.0 0.0 0.0 0.0 0.0 0.0 0.0 0.0 0.0 0.8 0.8 0.9 0.9 1.0 1.6 1.1 0.5 0.4 0.1 0.0 0.0 0.0 0.0 0.1 0.0 0.0
0.0 0.0 0.0 0.0 0.0 0.2 0.6 0.8 0.8 0.7 0.0 0.0 0.0 0.3 0.0 0.0 0.0 0.0 0.0 1.0 0.7 0.0 0.0 0.0 0.0 0.0 nan nan 1.6 1.6 1.5 2.5 3.2 3.3 0.6 0.3 0.1 0.1 0.1 0.0 0.4 0.2 0.2
0.0 0.0 0.0 1.4 1.7 1.8 1.7 1.2 0.9 0.8 0.8 0.8 0.7 0.7 0.7 0.0 nan nan 0.1 0.9 1.0 0.0 0.1 0.0 0.0 0.0 0.0 nan nan nan nan 4.1 10.1 9.3 0.9 0.6 0.1 0.1 0.0 0.1 0.2 0.4 1.1
1.9 2.7 2.5 2.2 1.9 1.6 1.3 1.2 0.9 0.9 0.9 0.8 0.7 0.7 0.7 0.7 nan nan nan 1.0 1.1 0.1 0.0 0.0 0.0 0.0 0.0 0.0 nan nan nan nan nan 0.6 1.9 0.5 0.2 0.1 0.1 0.2 0.3 0.6 0.6
2.3 3.2 2.4 1.6 2.7 1.5 1.3 1.4 1.0 0.9 1.1 0.9 1.0 1.0 0.8 0.7 nan nan nan 0.9 0.9 0.0 0.0 0.0 0.0 0.1 0.1 0.1 0.4 2.0 1.3 1.1 0.5 0.3 0.4 0.4 0.2 0.1 0.2 0.6 1.4 2.0 1.5
1.0 1.5 1.5 2.2 3.1 1.7 3.7 1.8 1.4 2.3 1.7 2.8 2.9 4.2 3.4 3.2 nan nan 1.7 2.9 2.1 1.6 0.1 0.1 0.1 0.3 nan nan 2.2 4.1 2.6 1.4 nan nan nan nan nan nan nan 6.1 14.9 16.4 8.8
0.9 0.9 1.1 2.1 4.5 3.6 2.2 3.2 3.6 3.5 3.2 4.1 3.7 3.3 0.9 4.7 nan nan nan 7.5 7.0 4.5 2.6 0.2 0.1 0.2 nan nan 2.6 3.8 5.3 2.0 1.3 3.6 1.0 0.8 nan nan nan 0.6 5.5 15.9 8.0
1.6 1.6 1.9 2.2 4.7 3.1 3.6 3.0 4.2 4.7 2.6 4.4 4.1 3.2 3.6 1.9 2.3 nan nan 4.7 6.8 8.4 7.1 4.7 2.6 nan nan nan nan 3.5 3.9 2.8 6.1 4.6 3.3 3.1 1.7 1.1 1.8 1.4 0.7 2.8 6.1
2.4 2.6 3.2 5.2 4.9 5.0 8.6 5.4 7.3 6.4 6.2 5.4 5.7 4.6 4.1 1.8 nan nan nan nan nan 12.2 6.4 3.0 2.9 nan nan nan 2.1 nan nan 1.7 9.8 10.6 8.6 6.3 3.6 3.1 1.8 1.5 0.4 0.9 1.1
5.4 7.4 7.4 6.7 6.7 6.7 9.6 6.2 8.7 7.3 8.5 4.9 6.4 5.9 3.9 3.5 3.7 nan nan nan nan 6.6 4.9 3.0 nan nan nan nan nan nan 0.3 6.3 8.5 10.2 7.0 3.5 1.9 1.5 0.8 1.6 0.5 1.0 0.6
10.2 5.6 4.6 5.8 4.4 5.8 7.8 8.9 12.6 9.7 7.7 8.2 9.6 9.0 5.6 5.3 4.0 4.4 8.4 6.0 2.1 6.5 nan 4.9 nan 2.7 nan nan 1.9 2.5 3.9 4.1 4.5 5.9 4.5 1.9 1.9 2.4 3.0 2.5 4.3 3.9 7.3
7.3 4.2 5.8 8.0 8.9 5.5 5.2 8.3 7.0 4.6 9.8 14.9 17.8 12.7 13.0 12.8 9.7 5.6 11.3 12.9 12.8 11.4 8.0 13.7 10.5 5.8 5.1 4.5 6.0 4.7 4.1 4.7 5.0 5.6 5.7 5.0 4.3 4.1 4.0 3.2 3.9 5.7 7.3
4.2 6.1 5.9 5.9 5.1 4.6 4.7 4.7 nan nan nan nan nan 12.4 15.4 nan nan nan nan nan nan nan 19.2 22.8 11.2 8.6 5.9 6.4 7.8 6.7 6.0 4.8 5.0 5.6 6.0 5.8 5.8 5.3 5.6 5.5 5.3 6.7 7.4
7.2 4.8 6.3 4.9 5.2 5.8 6.0 7.0 8.0 4.9 nan nan nan nan nan nan nan nan nan nan nan nan 32.0 18.4 14.9 9.5 8.6 6.2 7.9 6.8 6.6 5.4 2.8 4.9 4.9 5.6 7.0 7.5 7.1 6.6 6.0 5.2 8.0
6.9 1.9 7.6 7.3 7.0 7.2 7.9 8.1 8.4 9.8 11.3 9.4 nan nan nan nan nan nan nan nan 26.3 nan 25.9 26.8 22.6 17.7 12.6 10.6 8.1 7.3 6.9 6.3 5.3 6.4 7.0 11.5 12.9 13.5 11.8 11.7 8.3 10.3 9.9
7.4 6.2 6.9 6.9 6.6 6.9 7.7 6.9 7.8 7.7 8.2 10.7 10.3 10.5 5.5 nan nan nan nan 16.5 24.9 23.1 23.3 24.5 20.3 17.7 13.4 14.5 13.4 15.3 12.7 13.3 12.6 16.8 16.8 18.7 16.6 17.0 16.2 11.2 8.3 5.0 5.6
7.9 3.2 6.0 10.3 8.7 7.8 5.7 7.5 6.8 7.2 8.2 9.8 10.4 9.0 16.1 15.4 23.7 24.6 20.4 28.2 27.7 24.3 20.8 23.6 24.0 25.4 25.2 22.8 22.4 20.5 20.1 21.0 18.8 20.4 20.4 19.5 17.6 18.4 10.7 15.5 13.0 10.0 11.7
13.7 11.7 2.4 10.1 12.8 12.9 12.8 9.9 7.9 11.0 9.8 12.2 9.3 9.1 nan 14.2 16.5 19.1 23.0 21.0 24.7 26.5 22.0 25.0 25.5 32.5 32.9 36.3 29.4 27.9 25.7 14.8 20.1 22.8 24.5 24.6 22.9 27.1 15.2 8.6 13.7 14.5 13.2
15.7 16.3 16.3 17.1 11.7 12.1 14.0 9.1 10.3 10.5 10.0 8.5 6.7 7.2 nan 9.3 12.2 12.7 14.2 19.6 25.2 24.8 28.9 34.5 33.6 36.9 31.9 29.1 25.8 23.5 19.2 24.1 26.9 25.0 19.5 20.9 24.8 20.5 19.3 11.8 12.1 9.7 13.9
13.1 11.5 12.3 12.2 11.6 6.0 13.2 15.4 13.0 12.3 11.0 12.2 10.5 11.1 13.4 16.5 13.9 13.3 21.7 25.0 18.9 17.1 19.9 21.5 19.9 19.3 17.4 20.8 17.9 17.6 19.6 23.4 24.9 33.6 21.8 23.3 22.8 26.3 22.2 18.4 15.3 16.2 14.9
11.7 11.9 11.4 15.6 13.5 10.9 13.3 14.4 12.3 5.7 12.5 13.9 24.2 18.0 9.5 13.4 21.1 14.7 16.0 19.6 15.4 28.7 18.9 20.2 15.5 15.2 17.9 29.6 38.4 37.6 40.8 42.7 40.8 37.3 33.3 22.0 22.3 17.9 18.0 20.0 14.8 12.5 10.6
14.9 12.4 12.7 11.5 18.7 14.6 13.6 16.7 11.3 16.1 19.5 14.5 18.4 13.1 13.9 12.7 14.0 21.6 19.6 15.2 17.4 15.7 12.9 12.7 13.4 14.1 14.6 15.8 23.6 31.2 31.3 4.2 20.1 4.6 28.6 19.3 24.6 25.7 24.1 19.0 17.1 13.6 10.7
11.7 12.3 12.8 13.3 12.9 14.5 15.4 15.0 15.8 12.2 16.1 17.7 16.2 16.3 13.4 13.3 13.4 16.7 15.1 15.1 11.4 12.0 12.8 14.5 14.3 12.3 11.5 13.4 14.4 6.5 3.9 3.4 23.4 3.9 22.6 18.4 22.7 21.8 21.4 21.5 19.5 17.1 12.9
Water_Equivalent
0.00 0.00 0.00 0.00 0.00 0.00 0.00 0.00 0.00 0.00 0.00 0.00 0.00 0.00 0.00 0.00 0.00 0.00 0.00 0.00 0.05 0.05 0.00 0.00 0.00 0.00 0.00 0.00 0.01 0.01 0.02 0.02 0.19 0.01 0.00 0.00 0.00 0.00 0.00 0.00 0.00 0.00 0.00
0.00 0.00 0.00 0.00 0.00 0.00 0.00 0.00 0.00 0.00 0.00 0.00 0.00 0.00 0.00 0.00 0.00 0.00 0.00 0.07 0.07 0.00 0.00 0.00 0.00 0.04 0.08 0.01 0.01 0.01 0.01 0.01 0.06 0.09 0.00 0.00 0.00 0.00 0.00 0.00 0.00 0.00 0.00
0.00 0.00 0.00 0.00 0.00 0.00 0.00 0.00 0.00 0.00 0.00 0.00 0.00 0.00 0.00 0.00 0.00 0.00 0.00 0.00 0.00 0.00 0.00 0.00 0.00 0.05 0.09 0.09 0.01 0.01 0.03 0.01 0.03 0.08 0.05 0.00 0.00 0.00 0.00 0.00 0.00 0.00 0.00
0.00 0.00 0.00 0.00 0.00 0.00 0.00 0.00 0.00 0.00 0.00 0.00 0.00 0.00 0.00 0.00 0.00 0.00 0.00 0.00 0.00 0.00 0.00 0.00 0.00 0.00 0.08 0.08 0.08 0.09 0.09 0.16 0.11 0.06 0.05 0.01 0.00 0.00 0.00 0.01 0.02 0.00 0.00
0.00 0.00 0.00 0.00 0.00 0.02 0.07 0.09 0.08 0.07 0.00 0.00 0.00 0.03 0.00 0.00 0.00 0.00 0.00 0.10 0.07 0.00 0.00 0.00 0.00 0.01 nan nan 0.16 0.16 0.14 0.24 0.31 0.33 0.06 0.02 0.01 0.01 0.01 0.01 0.05 0.04 0.04
0.00 0.00 0.00 0.14 0.17 0.18 0.17 0.12 0.09 0.08 0.08 0.08 0.07 0.07 0.07 0.00 nan nan 0.01 0.08 0.10 0.00 0.01 0.00 0.00 0.00 0.00 nan nan nan nan 0.40 1.00 0.93 0.09 0.05 0.01 0.01 0.01 0.02 0.05 0.08 0.17
0.20 0.29 0.25 0.22 0.19 0.16 0.13 0.12 0.09 0.09 0.09 0.08 0.07 0.07 0.07 0.07 nan nan nan 0.10 0.10 0.00 0.00 0.00 0.00 0.00 0.01 0.00 nan nan nan nan nan 0.07 0.18 0.05 0.02 0.01 0.01 0.04 0.06 0.14 0.15
0.24 0.33 0.24 0.16 0.28 0.15 0.13 0.14 0.10 0.09 0.11 0.09 0.10 0.10 0.07 0.07 nan nan nan 0.09 0.09 0.00 0.00 0.00 0.01 0.01 0.01 0.01 0.04 0.20 0.13 0.11 0.06 0.03 0.04 0.04 0.02 0.01 0.03 0.07 0.19 0.31 0.24
0.10 0.15 0.15 0.22 0.31 0.17 0.37 0.17 0.13 0.22 0.17 0.28 0.29 0.42 0.34 0.33 nan nan 0.18 0.29 0.21 0.16 0.01 0.01 0.02 0.03 nan nan 0.22 0.41 0.26 0.14 nan nan nan nan nan nan nan 0.78 1.92 2.11 1.15
0.09 0.09 0.11 0.21 0.44 0.35 0.21 0.31 0.36 0.35 0.32 0.41 0.37 0.33 0.11 0.48 nan nan nan 0.78 0.71 0.46 0.27 0.03 0.03 0.02 nan nan 0.26 0.38 0.52 0.20 0.14 0.38 0.11 0.09 nan nan nan 0.08 0.74 1.92 1.10
0.16 0.16 0.19 0.21 0.47 0.30 0.35 0.30 0.42 0.46 0.25 0.43 0.40 0.32 0.36 0.21 0.23 nan nan 0.48 0.69 0.84 0.71 0.48 0.27 nan nan nan nan 0.36 0.39 0.28 0.62 0.47 0.37 0.36 0.21 0.14 0.23 0.17 0.10 0.40 0.87
0.23 0.25 0.31 0.50 0.48 0.49 0.86 0.53 0.72 0.63 0.61 0.54 0.57 0.46 0.41 0.18 nan nan nan nan nan 1.24 0.64 0.30 0.29 nan nan nan 0.25 nan nan 0.21 1.03 1.13 0.95 0.71 0.42 0.38 0.22 0.19 0.05 0.12 0.15
0.53 0.74 0.74 0.65 0.66 0.66 0.96 0.61 0.86 0.73 0.86 0.49 0.65 0.59 0.39 0.35 0.38 nan nan nan nan 0.67 0.50 0.30 nan nan nan nan nan nan 0.10 0.67 0.90 1.05 0.71 0.39 0.22 0.18 0.10 0.20 0.06 0.13 0.08
1.02 0.54 0.43 0.56 0.45 0.55 0.77 0.89 1.28 0.97 0.77 0.83 0.97 0.90 0.56 0.53 0.40 0.45 0.85 0.65 0.29 0.66 nan 0.50 nan 0.28 nan nan 0.21 0.25 0.39 0.43 0.47 0.60 0.51 0.23 0.23 0.29 0.38 0.31 0.54 0.49 0.94
0.69 0.38 0.54 0.78 0.88 0.52 0.49 0.81 0.69 0.46 0.97 1.49 1.80 1.26 1.27 1.25 0.97 0.56 1.17 1.34 1.31 1.14 0.96 1.38 1.06 0.57 0.49 0.42 0.57 0.44 0.39 0.47 0.50 0.60 0.62 0.57 0.51 0.50 0.51 0.40 0.49 0.72 0.91
0.38 0.58 0.57 0.58 0.50 0.45 0.46 0.44 nan nan nan nan nan 1.24 1.58 nan nan nan nan nan nan nan 2.05 2.27 1.07 0.81 0.54 0.58 0.70 0.60 0.54 0.47 0.48 0.56 0.65 0.66 0.66 0.62 0.67 0.69 0.69 0.85 0.89
0.70 0.46 0.60 0.51 0.49 0.55 0.57 0.68 0.77 0.48 nan nan nan nan nan nan nan nan nan nan nan nan 3.32 1.80 1.41 0.86 0.77 0.52 0.68 0.58 0.55 0.48 0.24 0.48 0.49 0.60 0.78 0.88 0.88 0.82 0.76 0.66 1.01
0.66 0.61 0.72 0.69 0.66 0.68 0.75 0.78 0.82 0.96 1.11 0.92 nan nan nan nan nan nan nan nan 2.74 nan 2.63 2.65 2.17 1.67 1.12 0.92 0.68 0.60 0.57 0.55 0.47 0.60 0.67 1.17 1.38 1.50 1.36 1.40 1.03 1.30 1.25
0.70 0.59 0.67 0.66 0.64 0.68 0.76 0.66 0.75 0.74 0.78 1.04 1.00 1.04 0.88 nan nan nan nan 1.72 2.56 2.31 2.32 2.43 1.94 1.64 1.21 1.33 1.24 1.45 1.17 1.23 1.17 1.62 1.65 1.89 1.75 1.83 1.82 1.31 0.98 0.74 0.77
0.75 0.76 0.74 0.99 0.81 0.72 0.52 0.69 0.62 0.66 0.75 0.93 1.00 0.88 1.61 1.73 2.43 2.52 2.08 2.94 2.84 2.44 2.07 2.33 2.34 2.48 2.47 2.24 2.21 2.02 1.97 2.07 1.83 1.97 1.96 1.93 1.83 2.00 1.16 1.82 1.55 1.17 1.47
1.25 1.04 0.79 0.89 1.16 1.19 1.20 0.90 0.69 1.02 0.91 1.16 0.89 0.87 nan 1.43 1.67 1.93 2.34 2.09 2.48 2.70 2.18 2.46 2.49 3.28 3.36 3.76 3.01 2.84 2.60 1.43 1.98 2.24 2.41 2.43 2.32 2.92 1.69 0.93 1.62 1.78 1.66
1.38 1.46 1.46 1.55 0.99 1.03 1.25 0.78 0.90 0.93 0.88 0.74 0.57 0.66 nan 0.86 1.14 1.22 1.36 1.95 2.54 2.48 2.89 3.50 3.40 3.77 3.24 2.95 2.59 2.38 1.91 2.44 2.74 2.50 1.87 2.01 2.46 2.10 2.13 1.34 1.42 1.17 1.75
1.09 0.91 1.01 1.00 0.96 1.32 1.13 1.38 1.15 1.10 0.97 1.13 0.98 0.98 1.18 1.62 1.35 1.27 2.14 2.45 1.81 1.63 1.93 2.10 1.95 1.90 1.73 2.09 1.79 1.75 1.92 2.30 2.42 3.41 2.07 2.24 2.16 2.62 2.34 2.01 1.75 1.92 1.85
0.95 0.99 0.96 1.41 1.19 0.91 1.17 1.29 1.05 1.40 1.13 1.27 2.28 1.76 0.90 1.28 2.04 1.36 1.49 1.87 1.47 2.90 1.88 2.04 1.55 1.51 1.80 3.05 4.06 3.96 4.33 4.56 4.26 3.82 3.36 2.06 2.06 1.83 1.74 2.15 1.64 1.55 1.23
1.28 1.04 1.07 0.97 1.72 1.28 1.18 1.51 0.96 1.47 1.81 1.34 1.78 1.18 1.22 1.10 1.28 2.09 1.90 1.47 1.71 1.57 1.28 1.27 1.35 1.43 1.47 1.60 2.42 3.25 3.47 1.37 2.45 1.51 2.87 1.82 2.31 2.38 2.24 1.89 1.75 1.40 1.19
0.99 1.06 1.10 1.16 1.12 1.30 1.40 1.37 1.45 1.08 1.49 1.64 1.49 1.51 1.23 1.23 1.26 1.64 1.48 1.49 1.13 1.20 1.29 1.46 1.46 1.25 1.16 1.35 1.45 1.59 1.28 1.11 2.52 1.28 2.24 1.73 2.09 1.89 1.84 1.88 1.71 1.62 1.27
SL_Ratio
nan nan nan nan nan nan nan nan nan nan nan nan nan nan nan nan nan nan nan nan 9.7 9.7 nan 8.3 nan nan 7.9 7.9 7.1 7.6 7.7 7.7 8.9 7.6 nan nan nan nan nan nan nan nan nan
nan nan nan nan nan nan nan nan nan nan nan nan nan nan nan nan nan nan 10.0 9.7 9.8 10.0 nan 10.0 8.0 9.8 9.9 8.1 8.3 8.4 8.6 8.2 8.7 9.8 7.5 8.3 nan nan 5.0 5.0 nan nan nan
nan nan nan nan nan nan nan nan nan nan nan nan nan nan nan nan nan nan nan nan nan nan nan 10.0 10.0 10.0 10.1 10.0 9.7 9.9 9.6 9.4 8.5 9.0 8.6 8.3 nan nan 5.0 nan nan nan nan
nan nan nan nan nan nan nan nan nan nan nan nan nan nan nan nan nan nan nan nan 5.0 nan nan 10.0 15.0 11.0 10.1 10.1 10.1 10.1 10.1 10.0 9.6 8.2 8.5 7.7 6.7 nan 10.0 5.5 4.9 nan 7.5
nan nan nan nan nan 8.9 9.5 9.6 9.6 9.8 nan nan nan 10.0 nan nan nan nan 12.5 10.0 10.1 11.7 11.4 10.0 8.8 4.4 nan nan 10.0 10.3 10.4 10.5 10.3 10.0 10.7 10.1 9.4 9.2 8.0 7.9 7.2 6.1 5.5
8.8 9.5 9.5 9.9 9.9 9.9 9.9 9.9 9.9 10.0 10.0 9.9 10.0 10.0 10.0 nan nan nan 11.1 10.3 10.1 11.9 11.3 11.3 12.5 6.0 9.2 nan nan nan nan 10.1 10.1 10.0 10.4 10.6 9.0 8.8 8.1 5.8 4.7 5.0 6.4
9.6 9.2 9.6 9.9 10.0 10.0 10.0 10.0 10.0 10.0 10.0 10.0 10.0 10.0 10.0 10.0 nan nan nan 10.0 10.1 11.7 10.0 10.0 9.5 8.0 3.7 9.0 nan nan nan nan nan 8.9 10.3 10.0 9.7 8.8 6.4 5.5 4.9 4.0 4.4
9.6 9.8 9.9 10.0 9.9 10.0 10.0 10.0 10.2 10.2 10.3 10.2 10.1 10.1 10.1 10.0 nan nan nan 10.0 10.1 10.6 10.0 9.0 9.7 9.5 9.3 9.2 9.6 10.0 9.8 9.8 9.4 9.3 9.2 9.4 9.4 8.8 7.6 7.9 7.5 6.4 6.4
10.0 10.0 10.0 10.0 10.0 10.2 10.1 10.6 10.8 10.3 10.4 10.1 10.0 9.9 9.9 9.9 nan nan 9.3 10.0 10.0 9.9 8.7 8.8 8.9 9.7 nan nan 9.8 10.0 10.0 9.9 nan nan nan nan nan nan nan 7.8 7.8 7.8 7.7
10.0 10.2 10.2 10.2 10.1 10.3 10.5 10.4 10.1 10.0 10.0 9.9 10.0 10.0 8.1 9.9 nan nan nan 9.6 9.9 9.9 9.8 8.3 3.5 8.4 nan nan 9.7 10.1 10.2 9.9 9.7 9.6 9.2 8.9 nan nan nan 7.5 7.4 8.3 7.2
10.0 10.3 10.3 10.4 10.2 10.3 10.2 10.1 10.1 10.2 10.3 10.1 10.1 10.1 10.0 9.4 9.8 nan nan 9.7 9.9 10.0 9.9 9.8 9.6 nan nan nan nan 9.9 10.0 9.8 9.9 9.8 9.0 8.6 8.4 8.2 8.0 7.9 7.6 7.0 7.0
10.2 10.4 10.5 10.3 10.3 10.3 10.0 10.3 10.1 10.1 10.1 10.1 10.0 10.0 9.9 10.0 nan nan nan nan nan 9.8 10.0 9.9 9.9 nan nan nan 8.5 nan nan 8.0 9.6 9.4 9.0 8.9 8.4 8.3 8.1 8.0 7.9 7.6 7.4
10.1 10.1 10.1 10.2 10.2 10.1 10.0 10.2 10.1 10.1 9.9 10.0 9.9 9.9 9.9 9.9 9.9 nan nan nan nan 9.9 9.9 10.0 nan nan nan nan nan nan 3.0 9.4 9.4 9.6 9.8 8.8 8.5 8.2 8.0 7.7 7.8 7.8 7.7
10.0 10.3 10.6 10.5 9.7 10.6 10.2 10.0 9.8 10.0 10.0 9.9 9.9 9.9 10.0 10.0 10.0 9.9 9.8 9.1 7.1 10.0 nan 9.9 nan 9.8 nan nan 9.1 10.1 10.0 9.5 9.6 9.9 8.8 8.3 8.1 8.1 8.1 7.9 8.0 7.9 7.8
10.5 10.9 10.7 10.3 10.2 10.6 10.5 10.3 10.2 10.2 10.1 10.0 9.9 10.1 10.2 10.2 10.0 9.9 9.7 9.6 9.8 10.0 8.4 9.9 10.0 10.2 10.5 10.7 10.5 10.7 10.5 10.0 10.0 9.4 9.3 8.8 8.3 8.1 7.9 7.9 7.9 7.9 8.1
11.1 10.6 10.4 10.2 10.2 10.2 10.4 10.7 nan nan nan nan nan 10.0 9.8 nan nan nan nan nan nan nan 9.4 10.0 10.5 10.6 11.0 11.1 11.0 11.2 11.1 10.2 10.5 9.9 9.3 8.8 8.8 8.5 8.3 8.0 7.8 7.9 8.3
10.2 10.4 10.4 9.8 10.7 10.6 10.5 10.4 10.4 10.3 nan nan nan nan nan nan nan nan nan nan nan nan 9.6 10.2 10.6 10.9 11.3 12.0 11.6 11.8 11.9 11.2 11.5 10.3 9.9 9.3 9.0 8.6 8.1 8.0 7.9 7.9 8.0
10.4 3.0 10.6 10.7 10.7 10.5 10.5 10.4 10.3 10.2 10.2 10.2 nan nan nan nan nan nan nan nan 9.6 nan 9.9 10.1 10.4 10.6 11.2 11.5 11.9 12.2 11.9 11.5 11.3 10.6 10.5 9.9 9.4 9.0 8.6 8.3 8.0 7.9 7.9
10.4 10.5 10.4 10.3 10.3 10.2 10.2 10.4 10.4 10.5 10.5 10.3 10.3 10.1 6.3 nan nan nan nan 9.6 9.8 10.0 10.1 10.1 10.4 10.8 11.1 10.9 10.9 10.6 10.9 10.8 10.8 10.3 10.1 9.9 9.5 9.3 8.9 8.5 8.5 6.8 7.2
10.6 4.2 8.1 10.4 10.7 10.8 11.0 10.8 10.9 10.8 10.9 10.5 10.4 10.2 10.0 8.9 9.8 9.8 9.8 9.6 9.8 10.0 10.1 10.1 10.3 10.2 10.2 10.2 10.1 10.2 10.2 10.1 10.3 10.4 10.4 10.1 9.6 9.2 9.3 8.5 8.4 8.5 8.0
10.9 11.2 3.0 11.4 11.0 10.8 10.7 11.1 11.4 10.7 10.7 10.5 10.5 10.4 nan 9.9 9.9 9.9 9.8 10.1 10.0 9.8 10.1 10.1 10.2 9.9 9.8 9.7 9.8 9.8 9.9 10.3 10.1 10.2 10.2 10.1 9.8 9.3 9.0 9.2 8.4 8.1 8.0
11.4 11.2 11.1 11.1 11.8 11.8 11.2 11.7 11.5 11.4 11.4 11.5 11.7 10.8 nan 10.8 10.7 10.4 10.4 10.1 9.9 10.0 10.0 9.9 9.9 9.8 9.8 9.9 10.0 9.9 10.1 9.9 9.8 10.0 10.4 10.4 10.1 9.8 9.1 8.8 8.5 8.3 7.9
11.9 12.6 12.2 12.2 12.1 4.5 11.7 11.1 11.3 11.2 11.3 10.8 10.7 11.3 11.4 10.2 10.4 10.5 10.1 10.2 10.5 10.5 10.3 10.2 10.2 10.2 10.1 9.9 10.0 10.1 10.2 10.2 10.3 9.9 10.6 10.4 10.5 10.0 9.5 9.1 8.7 8.4 8.1
12.3 12.0 11.9 11.1 11.3 11.9 11.3 11.2 11.6 4.1 11.1 10.9 10.6 10.2 10.6 10.5 10.3 10.8 10.7 10.5 10.5 9.9 10.1 9.9 10.0 10.1 10.0 9.7 9.5 9.5 9.4 9.4 9.6 9.7 9.9 10.7 10.8 9.8 10.4 9.3 9.0 8.0 8.7
11.6 12.0 11.8 11.8 10.9 11.4 11.5 11.1 11.7 11.0 10.8 10.9 10.4 11.1 11.3 11.5 11.0 10.3 10.3 10.3 10.1 10.0 10.0 10.0 9.9 9.9 9.9 9.9 9.8 9.6 9.0 3.0 8.2 3.0 10.0 10.6 10.7 10.8 10.7 10.1 9.8 9.7 9.0
11.8 11.7 11.5 11.4 11.5 11.2 11.0 11.0 10.9 11.3 10.8 10.8 10.9 10.8 10.8 10.8 10.6 10.2 10.2 10.1 10.1 10.0 9.9 9.9 9.9 9.9 9.9 9.9 9.9 4.1 3.0 3.0 9.3 3.0 10.1 10.7 10.9 11.5 11.6 11.5 11.4 10.5 10.2